Regional Weather Roundup
Issued by NWS

Home | Current Version | Previous Version | Graphics & Text | Print | Product List | Glossary On
Versions: 1 2 3 4 5 6 7 8 9 10 11 12 13 14 15 16 17 18 19 20 21 22 23 24 25 26 27 28 29 30 31 32 33 34 35 36 37 38 39 40 41 42 43 44 45 46 47 48 49 50
000
ASUS43 KBIS 301310
RWRND

NORTH DAKOTA REGIONAL WEATHER ROUNDUP
NATIONAL WEATHER SERVICE BISMARCK ND
800 AM CDT SAT MAY 30 2015

NOTE: "FAIR" INDICATES FEW OR NO CLOUDS BELOW 12,000 FEET WITH NO
SIGNIFICANT WEATHER AND/OR OBSTRUCTIONS TO VISIBILITY.


NDZ001>003-009>011-017-301400-
NORTHWEST NORTH DAKOTA

CITY           SKY/WX    TMP DP  RH WIND       PRES   REMARKS
WILLISTON      PTSUNNY   43  35  73 SE15G21   30.33R
MINOT          MOSUNNY   39  30  70 E15       30.40S
MINOT AFB      MOSUNNY   40  36  85 SE14      30.40R
$$

NDZ018>021-031>035-040>046-301400-
SOUTHWEST NORTH DAKOTA

CITY           SKY/WX    TMP DP  RH WIND       PRES   REMARKS
BISMARCK       SUNNY     39  31  72 E12       30.41R
DICKINSON      MOSUNNY   38  34  85 SE14      30.31R
GARRISON         N/A     40  30  67 SE13      30.38S
HETTINGER ARPT MOSUNNY   40  35  83 E9        30.32S
$$

NDZ004>008-012>016-024-026-027-054-301400-
NORTHEAST NORTH DAKOTA

CITY           SKY/WX    TMP DP  RH WIND       PRES   REMARKS
GRAND FORKS    MOSUNNY   38  27  64 N13       30.41R
GRND FRKS AFB  SUNNY     37  26  64 NE13      30.41R
DEVILS LAKE    SUNNY     37  21  52 NE14      30.41S
$$

NDZ022-023-025-028>030-036>039-047>053-301400-
SOUTHEAST NORTH DAKOTA

CITY           SKY/WX    TMP DP  RH WIND       PRES   REMARKS
FARGO          SUNNY     38  29  70 N12       30.37R
JAMESTOWN      SUNNY     38  27  64 NE13      30.39R
$$




USA.gov is the U.S. government's official web portal to all federal, state and local government web resources and services.